Weather History for Del Rio, TX

Change the Weather History Date:

Friday, February 21, 2014

  Actual Average Record
Temperature  
Mean Temperature 58 °F 58 °F  
Max Temperature 73 °F 70 °F 99 °F (1996)
Min Temperature 43 °F 47 °F 30 °F (1939)
Degree Days  
Heating Degree Days 7 7  
Month to date heating degree days 229 199  
Since 1 July heating degree days 1376 1189  
Cooling Degree Days 0 1  
Month to date cooling degree days 24 5  
Year to date cooling degree days 24 8  
Growing Degree Days 8 (Base 50)    
Moisture  
Dew Point 22 °F    
Average Humidity 32    
Maximum Humidity 49    
Minimum Humidity 14    
Precipitation  
Precipitation 0.00 in 0.03 in 0.62 in (1966)
Month to date precipitation 0.03 0.63  
Year to date precipitation 0.03 1.35  
Sea Level Pressure  
Sea Level Pressure 30.04 in    
Wind  
Wind Speed 10 mph (SE)    
Max Wind Speed 25 mph    
Max Gust Speed 31 mph    
Visibility 10 miles    
Events      
T = Trace of Precipitation, MM = Missing Value Source: NWS Daily Summary

Daily Weather History Graph

Daily Weather History Graph

Search for Another Location

Airport:

Trip Planner

Search our weather history database for the weather conditions in past years. The results will help you decide how hot, cold, wet, or windy it might be!

Date:

Astronomy

Feb. 21, 2014 Rise Set
Actual Time 7:17 AM CST 6:37 PM CST
Civil Twilight 6:53 AM CST 7:01 PM CST
Nautical Twilight 6:25 AM CST 7:29 PM CST
Astronomical Twilight 5:57 AM CST 7:57 PM CST
Moon 12:03 AM CST (2/21) 11:13 AM CST (2/21)
Length of Visible Light 12h 08m
Length of Day
11h 20m
Waning Gibbous, 60% of the Moon is Illuminated
Feb 21
Waning Gibbous
Feb 22
Last Quarter
Mar 1
New
Mar 8
First Quarter
Mar 16
Full

Hourly Weather History & Observations

Time (CST) Temp. Windchill Dew Point Humidity Pressure Visibility Wind Dir Wind Speed Gust Speed Precip Events Conditions
12:53 AM 55.0 °F - 21.9 °F 28% 30.07 in 10.0 mi Calm Calm - N/A   Clear
1:53 AM 51.1 °F - 23.0 °F 33% 30.08 in 10.0 mi North 3.5 mph - N/A   Clear
2:53 AM 53.1 °F - 26.1 °F 35% 30.09 in 10.0 mi NE 3.5 mph - N/A   Clear
3:53 AM 50.0 °F - 27.0 °F 41% 30.09 in 10.0 mi ENE 4.6 mph - N/A   Clear
4:53 AM 46.9 °F - 26.1 °F 44% 30.10 in 10.0 mi Calm Calm - N/A   Clear
5:53 AM 44.1 °F 42.5 °F 26.1 °F 49% 30.12 in 10.0 mi SE 3.5 mph - N/A   Clear
6:53 AM 45.0 °F - 26.1 °F 48% 30.14 in 10.0 mi Calm Calm - N/A   Clear
7:53 AM 46.0 °F 43.1 °F 27.0 °F 47% 30.17 in 10.0 mi SE 5.8 mph - N/A   Clear
8:53 AM 54.0 °F - 27.0 °F 35% 30.19 in 10.0 mi SE 11.5 mph - N/A   Clear
9:53 AM 60.1 °F - 27.0 °F 28% 30.19 in 10.0 mi SE 18.4 mph 25.3 mph N/A   Clear
10:53 AM 61.0 °F - 25.0 °F 25% 30.17 in 10.0 mi SE 18.4 mph 26.5 mph N/A   Clear
11:53 AM 63.0 °F - 23.0 °F 22% 30.14 in 10.0 mi SE 16.1 mph 27.6 mph N/A   Clear
12:53 PM 66.0 °F - 26.1 °F 22% 30.09 in 10.0 mi SE 16.1 mph 25.3 mph N/A   Clear
1:53 PM 69.1 °F - 23.0 °F 18% 30.04 in 10.0 mi SE 17.3 mph 28.8 mph N/A   Clear
2:53 PM 72.0 °F - 21.9 °F 15% 29.99 in 10.0 mi SSE 17.3 mph 27.6 mph N/A   Clear
3:53 PM 71.1 °F - 19.9 °F 14% 29.96 in 10.0 mi SE 16.1 mph 25.3 mph N/A   Clear
4:53 PM 72.0 °F - 21.0 °F 15% 29.94 in 10.0 mi SSE 18.4 mph 27.6 mph N/A   Clear
5:53 PM 70.0 °F - 18.0 °F 14% 29.94 in 10.0 mi ESE 15.0 mph 23.0 mph N/A   Clear
6:53 PM 66.9 °F - 17.1 °F 15% 29.94 in 10.0 mi SSE 15.0 mph 19.6 mph N/A   Partly Cloudy
7:35 PM 66.0 °F - 17.1 °F 15% 29.96 in 10.0 mi ESE 11.5 mph 17.3 mph N/A   Mostly Cloudy
7:49 PM 66.2 °F - 17.6 °F 15% 29.97 in 10.0 mi SSE 9.2 mph - N/A   Mostly Cloudy
7:53 PM 64.9 °F - 18.0 °F 16% 29.95 in 10.0 mi SSE 8.1 mph - N/A   Mostly Cloudy
8:53 PM 64.0 °F - 18.0 °F 17% 29.95 in 10.0 mi SE 9.2 mph - N/A   Scattered Clouds
9:53 PM 62.1 °F - 18.0 °F 18% 29.96 in 10.0 mi ESE 10.4 mph - N/A   Partly Cloudy
10:53 PM 59.0 °F - 18.0 °F 20% 29.96 in 10.0 mi SE 10.4 mph - N/A   Clear
11:53 PM 57.9 °F - 21.0 °F 24% 29.96 in 10.0 mi SE 10.4 mph - N/A   Clear